TIME,DELAY(SENSOR),PRES,T(CTD),SAL,OXYGEN,RAWTEMP,T(OPTODE),TCPHASE,FLUOR,BETA(BETA700),BETA(BETA412),BETA(BETA440),CDOM,C(CSC),ED(ED411.90),ED(ED443.80),ED(ED489.40),ED(ED554.70),LU(LU412.20),LU(LU443.80),LU(LU489.40),LU(LU555.00),COMP,TILTX,TILTX(TILTY),CHECK
1342625533,5804,497.8699951171875000,16.5680007934570300,36.2860984802246100,217.2485046386718800,217.1190948486328000,16.5610904693603500,33.0584411621093750,50,106,99,83,68,15383,2147476626,2147771419,2147560018,2147801280,2147315702,2147468251,2147714496,2148247488,2528,7,13,36873
1342625668,5804,486.7600097656250000,16.7155990600585940,36.3149986267089840,219.1439971923828000,212.1410980224609400,16.7124595642089840,32.8874397277832000,50,107,99,82,68,15382,2147476416,2147771821,2147559588,2147798491,2147305481,2147477513,2147714084,2148244041,519,6,13,25623
1342625811,5806,475.2900085449219000,16.8551006317138670,36.3409996032714840,220.6947021484375000,207.4001007080078000,16.8566303253173830,32.7399597167968750,50,106,99,84,68,15385,2147480786,2147768475,2147559241,2147798994,2147311817,2147477833,2147710893,2148244818,970,7,13,13356
1342625946,5804,464.3099975585937500,17.0125007629394530,36.3727989196777340,223.3648071289062500,202.3793945312500000,17.0093193054199220,32.5312194824218750,50,105,99,83,68,15383,2147481078,2147770660,2147562496,2147798875,2147313600,2147476790,2147713600,2148248009,1646,6,13,37513
1342626078,5805,453.5400085449219000,17.1144008636474600,36.3935012817382800,225.7937927246093800,199.0366058349609400,17.1109905242919920,32.3604698181152340,50,106,99,84,68,15382,2147482614,2147766811,2147562139,2147798930,2147323081,2147473536,2147709211,2148245202,2615,7,13,54831
1342626213,5801,442.5799865722656000,17.2313003540039060,36.4174995422363300,228.5915985107422000,195.0953979492187500,17.2308692932128900,32.1650199890136700,50,107,100,83,66,15381,2147480164,2147769600,2147561993,2147799606,2147315794,2147473545,2147716123,2148245074,2926,7,13,6521
1342626345,5801,431.8099975585937500,17.3393993377685550,36.4384994506835940,230.7386016845703000,191.5847930908203000,17.3376693725585940,32.0099906921386700,50,105,100,84,66,15382,2147482706,2147769682,2147560786,2147796562,2147315190,2147475611,2147713042,2148247049,399,6,12,54269
1342626488,5805,420.2699890136719000,17.4447994232177730,36.4603996276855500,233.3726959228515600,188.2238006591797000,17.4399299621582030,31.8348808288574220,50,107,99,84,67,15381,2147484708,2147768493,2147559140,2147795008,2147315081,2147480740,2147710445,2148248091,651,7,12,20109
1342626622,5803,409.6700134277344000,17.5142002105712900,36.4716987609863300,233.9548034667968800,185.8368072509765600,17.5125598907470700,31.7740898132324220,50,108,98,84,67,15379,2147483456,2147768640,2147559314,2147795035,2147314322,2147476004,2147713024,2148242779,1221,7,13,16035
1342626765,5805,398.4700012207031000,17.6046009063720700,36.4902000427246100,235.2942962646484400,182.8666992187500000,17.6029491424560550,31.6687793731689450,50,108,99,83,66,15382,2147479524,2147768274,2147560603,2147792566,2147309019,2147473435,2147712841,2148241472,2203,7,13,35999
1342626909,5803,385.9200134277344000,17.6555995941162100,36.5007019042968750,236.2931060791015600,181.1177062988281200,17.6561794281005860,31.5971698760986330,50,106,100,84,67,15381,2147484352,2147771849,2147562240,2147792018,2147304795,2147474605,2147711689,2148244891,2778,8,13,44282
1342627019,5805,374.7000122070312500,17.7402000427246100,36.5143013000488300,236.8744964599609400,178.4933929443359400,17.7360496520996100,31.5336494445800780,50,107,99,82,67,15381,2147486006,2147766253,2147562057,2147795053,2147309074,2147476818,2147714523,2148240274,308,7,13,679
1342627129,5804,363.5000000000000000,17.7992992401123050,36.5259017944335940,237.4732971191406200,176.5039062500000000,17.7966098785400400,31.4783496856689450,50,106,99,83,66,15382,2147486537,2147768457,2147562230,2147793718,2147311853,2147476452,2147709851,2148243949,846,7,13,18928
1342627230,5803,353.2099914550781000,17.8353004455566400,36.5292015075683600,236.7180938720703000,175.2366027832031200,17.8351898193359380,31.4974403381347660,50,108,99,83,66,15378,2147487844,2147768109,2147564928,2147795812,2147316580,2147478290,2147710537,2148243693,1521,7,12,25767
1342627340,5803,341.9299926757812500,17.8882999420166000,36.5373001098632800,236.8329010009765600,173.5388031005859400,17.8868808746337900,31.4687309265136720,49,108,100,84,66,15377,2147485696,2147768374,2147564086,2147792740,2147320502,2147475602,2147714953,2148245668,3017,7,12,59573
1342627450,5804,330.3800048828125000,17.9402999877929700,36.5451011657714840,237.2236022949218800,171.8294067382812500,17.9389305114746100,31.4271907806396500,50,109,99,83,66,15376,2147482788,2147765741,2147569298,2147793225,2147314715,2147476928,2147719149,2148243693,180,7,12,10251
1342627566,5802,319.4500122070312500,17.9943008422851560,36.5513000488281250,236.7657928466797000,170.1336059570312500,17.9905605316162100,31.4260997772216800,50,111,100,84,68,15374,2147487515,2147767725,2147572288,2147794166,2147311524,2147480128,2147715026,2148240027,516,7,13,42377
1342627698,5803,308.8599853515625000,18.0268001556396500,36.5561981201171900,236.4658966064453000,169.0370025634765600,18.0239505767822270,31.4257698059082030,50,110,100,85,66,15370,2147485650,2147771492,2147580681,2147792960,2147310436,2147480073,2147723593,2148244827,1015,7,13,50350
1342627844,5801,297.2799987792969000,18.0844993591308600,36.5573997497558600,234.3612060546875000,167.1645050048828000,18.0809803009033200,31.5017700195312500,50,110,100,85,67,15369,2147484635,2147773275,2147590134,2147790829,2147308141,2147479835,2147729718,2148243282,1729,8,13,26509
1342627976,5805,287.0400085449219000,18.1317005157470700,36.5611991882324200,233.3881072998047000,165.5511016845703000,18.1301193237304700,31.5269508361816400,50,110,99,85,67,15370,2147484498,2147772553,2147595309,2147793380,2147310838,2147489042,2147731620,2148242989,2663,7,12,39743
1342628141,5804,273.8599853515625000,18.2001991271972660,36.5670013427734400,231.9602050781250000,163.2870025634765600,18.1990795135498050,31.5659408569335940,50,112,99,85,67,15365,2147484672,2147781238,2147618541,2147794166,2147310134,2147485869,2147743177,2148242806,346,7,12,46596
1342628248,5799,263.4299926757812500,18.3078994750976560,36.5839004516601560,232.0193023681640600,159.8338012695312500,18.3042793273925780,31.5164508819580080,50,113,101,86,66,15365,2147487872,2147788598,2147637961,2147791542,2147306843,2147488100,2147753974,2148243126,1101,8,12,16206
1342628358,5801,252.2599945068359400,18.3749008178710940,36.5884017944335940,231.0009002685547000,157.5153961181640600,18.3749294281005860,31.5352706909179700,50,113,101,86,67,15367,2147489142,2147797504,2147670820,2147793197,2147307117,2147496941,2147774290,2148243465,1543,7,12,60565
1342628470,5802,240.8800048828125000,18.4762001037597660,36.5904006958007800,228.8343963623047000,154.1165008544922000,18.4785099029541000,31.5960502624511720,50,113,100,86,66,15360,2147486244,2147815917,2147715904,2147792758,2147310701,2147511058,2147804818,2148243547,1255,8,13,49965
1342628580,5805,229.5800018310547000,18.6909008026123050,36.5996017456054700,228.0812988281250000,147.3354034423828000,18.6852302551269530,31.5423698425292970,50,112,101,85,67,15362,2147491072,2147834139,2147777060,2147791707,2147301860,2147521481,2147837504,2148245467,2533,7,12,49993
1342628690,5803,218.4400024414062500,18.8554000854492200,36.6031990051269500,230.3332977294922000,141.5131988525390600,18.8628005981445300,31.3535499572753900,50,114,101,84,67,15367,2147498788,2147864329,2147865270,2147789485,2147314733,2147544164,2147888758,2148247908,901,7,12,7035
1342628818,5804,207.8600006103515600,19.0442008972167970,36.5985984802246100,235.0594940185547000,135.8975067138672000,19.0341396331787100,31.0508308410644530,50,113,99,86,67,15365,2147500937,2147907776,2147972726,2147791542,2147316342,2147574628,2147947858,2148250304,1454,7,13,49926
1342628983,5804,198.0299987792968800,19.1483993530273440,36.5940017700195300,242.7420043945312500,132.3847961425781200,19.1413593292236330,30.6453800201416000,50,114,100,86,65,15363,2147508745,2147958893,2148105316,2147791744,2147318006,2147603529,2148026797,2148256429,2578,7,13,45672
1342629071,5801,193.8399963378906200,19.1814994812011720,36.5974006652832000,245.2675018310547000,131.5579986572265600,19.1665992736816400,30.5195598602294920,51,115,100,86,65,15367,2147514733,2147981805,2148167469,2147791808,2147320210,2147619977,2148065453,2148254665,2743,7,13,41411
1342629214,5802,190.3300018310547000,19.1737995147705080,36.5826988220214840,249.0818023681640600,131.4839019775390600,19.1688594818115230,30.3474998474121100,51,119,99,85,64,15369,2147520347,2148003611,2148229037,2147793572,2147319808,2147641755,2148101558,2148260425,2434,7,13,10636
1342629400,5804,185.6499938964843800,19.2213001251220700,36.5898017883300800,250.8677062988281200,129.9380035400390600,19.2160606384277340,30.2485008239746100,51,111,103,84,64,15369,2147529088,2148051236,2148343040,2147792521,2147325385,2147672786,2148173046,2148262070,2322,7,12,45823
1342629488,5800,181.8200073242187500,19.2397003173828120,36.5900993347168000,252.1056976318359400,129.1950073242187500,19.2387409210205080,30.1843891143798830,50,113,99,84,63,15357,2147534665,2148087268,2148428251,2147793554,2147324662,2147701540,2148226304,2148268736,2504,7,12,7111
1342629576,5803,177.8600006103515600,19.2775001525878900,36.5955009460449200,253.3470001220703000,128.0507049560547000,19.2736892700195300,30.1153602600097660,51,111,99,86,63,15361,2147538066,2148128493,2148521517,2147792493,2147330752,2147721517,2148282038,2148270464,2070,7,13,45892
1342629667,5803,173.6799926757812500,19.2831993103027340,36.5918006896972660,254.3721923828125000,127.7282028198242200,19.2835292816162100,30.0666007995605470,52,113,100,86,64,15364,2147550628,2148182720,2148659940,2147793179,2147340114,2147767716,2148364224,2148273069,1667,7,12,23744
1342629755,5802,169.6699981689453000,19.2705993652343750,36.5810012817382800,255.3135070800781200,128.1266937255859400,19.2713603973388670,30.0310802459716800,54,114,101,85,64,15361,2147563236,2148233005,2148780818,2147792868,2147342829,2147803364,2148442057,2148279625,1625,7,13,57602
1342629843,5803,165.6799926757812500,19.2768993377685550,36.5802993774414060,256.9883117675781000,128.0209045410156200,19.2745990753173830,29.9579792022705080,54,114,100,84,64,15356,2147578742,2148300516,2148945600,2147794075,2147355291,2147851035,2148536758,2148281243,2023,7,13,44451
1342629931,5804,161.8099975585937500,19.3038005828857420,36.5852012634277340,257.4406127929687500,127.1709976196289000,19.3005504608154300,29.9275398254394530,55,113,102,85,64,15355,2147593097,2148360621,2149080283,2147791442,2147356589,2147887552,2148618166,2148288594,2496,7,12,33069
1342630032,5804,157.5099945068359400,19.3369007110595700,36.5933990478515600,257.7504882812500000,126.0927963256836000,19.3334808349609380,29.9004707336425780,58,113,100,87,64,15349,2147610761,2148428662,2149225472,2147793728,2147368082,2147934235,2148692004,2148292909,3266,7,12,37408
1342630120,5804,153.7700042724609400,19.3486995697021500,36.5950012207031250,258.0617065429687500,125.6829986572265600,19.3460006713867200,29.8819103240966800,60,118,101,87,63,15350,2147637906,2148541302,2149482761,2147798299,2147380891,2148005860,2148844891,2148300443,3494,7,13,41539
1342630219,5804,149.4600067138672000,19.3511009216308600,36.5932998657226560,258.1760864257812500,125.6034011840820300,19.3484306335449220,29.8759498596191400,65,117,101,85,63,15347,2147671899,2148684214,2149800978,2147797430,2147407698,2148099218,2149022665,2148313453,205,7,13,30546
1342630310,5803,145.3600006103515600,19.3554992675781250,36.5922012329101560,258.0903930664062500,125.4143981933593800,19.3542003631591800,29.8771495819091800,66,117,100,86,63,15339,2147714377,2148821238,2150113005,2147803666,2147423542,2148182555,2149197028,2148323584,421,7,12,42091
1342630398,5804,141.3600006103515600,19.3624992370605470,36.5923995971679700,258.3068847656250000,125.2052001953125000,19.3605899810791000,29.8652992248535160,73,122,100,86,64,15336,2147760320,2148983488,2150465097,2147808064,2147445165,2148274550,2149382692,2148336018,531,7,12,63457
1342630475,5804,137.8300018310547000,19.3672008514404300,36.5929985046386700,258.2623901367187500,125.0379028320312500,19.3656997680664060,29.8649806976318360,74,123,100,87,63,15332,2147805833,2149137874,2150810989,2147813037,2147473581,2148369280,2149557851,2148350473,689,7,13,31463
1342630574,5801,133.4299926757812500,19.3750991821289060,36.5932006835937500,258.3146057128906000,124.8397979736328100,19.3717498779296880,29.8602790832519530,81,122,102,86,63,15325,2147882048,2149381440,2151313883,2147817837,2147497746,2148495524,2149811145,2148363995,715,7,13,16836
1342630664,5803,129.5200042724609400,19.3707008361816400,36.5890007019043000,258.3554077148437500,124.9214019775390600,19.3692607879638670,29.8596000671386720,87,126,103,87,64,15316,2147970249,2149645220,2151848091,2147829266,2147538011,2148626953,2150059309,2148379264,612,7,12,48090
1342630752,5803,125.8000030517578100,19.3691005706787100,36.5857009887695300,258.0794982910156000,124.9934005737304700,19.3670597076416000,29.8723201751709000,90,129,102,87,63,15313,2148082249,2149973312,2152503634,2147840621,2147589321,2148782902,2150350848,2148404260,339,7,12,8354
1342630851,5803,121.7099990844726600,19.3791007995605470,36.5861015319824200,257.9379882812500000,124.6992034912109400,19.3760509490966800,29.8744297027587900,100,130,103,88,64,15304,2148231332,2150385398,2153310555,2147855122,2147645750,2148973632,2150708790,2148433243,165,7,13,11626
1342630953,5803,117.7699966430664000,19.3852996826171880,36.5852012634277340,258.2402038574219000,124.4400024414062500,19.3839607238769530,29.8584499359130860,109,134,103,88,65,15289,2148411931,2150872822,2154208566,2147872978,2147720987,2149175451,2151081380,2148463085,120,7,12,12665
1342631063,5803,113.8000030517578100,19.3950004577636720,36.5833015441894500,258.2944946289062500,124.1597976684570300,19.3925209045410160,29.8522605895996100,123,146,103,89,64,15272,2148645906,2151499328,2155356982,2147902317,2147798692,2149398098,2151505124,2148498486,3455,7,12,27586
1342631173,5799,110.2099990844726600,19.3960990905761720,36.5777015686035160,258.4085083007812500,123.9611968994140600,19.3985900878906250,29.8450603485107420,137,146,104,90,64,15218,2148946834,2152279232,2156723602,2147931510,2147900013,2149669238,2151986788,2148544731,3418,7,13,17171
1342631273,5802,106.5000000000000000,19.4349994659423830,36.5829010009765600,259.7916870117187500,122.8119964599609400,19.4337005615234380,29.7717704772949220,140,139,105,89,65,15250,2149463433,2153567798,2158868059,2147987638,2148074953,2150090486,2152724626,2148616822,3368,7,12,50167
1342631350,5801,102.8000030517578100,19.4633998870849600,36.5815010070800800,261.5378112792969000,121.9260025024414000,19.4607696533203120,29.6868991851806640,152,139,104,88,65,15233,2150141906,2155167451,2161293677,2148049709,2148273700,2150575186,2153491602,2148698386,3580,7,12,9178
1342631416,5802,99.6500015258789000,19.4904003143310550,36.5820999145507800,262.9554138183594000,121.0066986083984400,19.4888591766357420,29.6160907745361330,163,144,104,89,66,15210,2150899072,2156926628,2163862473,2148117275,2148490816,2151064740,2154308150,2148779373,3508,7,13,47582
1342631471,5804,97.0000000000000000,19.5324993133544920,36.5839004516601560,264.7916870117187500,119.7102966308593800,19.5284690856933600,29.5235805511474600,149,139,105,89,66,15202,2151675977,2158659666,2166290825,2148191222,2148728932,2151577225,2155105161,2148867200,54,8,12,48674
1342631526,5803,94.3399963378906200,19.5578002929687500,36.5848007202148440,267.1048889160156000,118.7219009399414000,19.5586795806884770,29.4161891937255860,124,135,105,90,65,15212,2152542720,2160444461,2168597988,2148276050,2149004836,2152196781,2156019373,2148969462,301,7,13,41894
1342631583,5804,91.4899978637695300,19.5832004547119140,36.5867996215820300,268.8971862792969000,118.0580978393554700,19.5789699554443360,29.3349704742431640,113,132,103,89,65,15205,2153778002,2162957376,2171896155,2148392594,2149397568,2153119881,2157334500,2149106523,458,7,12,20407
1342631638,5807,88.8199996948242200,19.6401996612548830,36.5850982666015600,270.3897094726562500,116.2683029174804700,19.6336803436279300,29.2521800994873050,108,136,105,92,66,15196,2154990262,2165183963,2174590253,2148525092,2149844452,2154058733,2158613531,2149247213,559,7,13,44344
1342631693,5804,86.2900009155273400,19.6627998352050780,36.5859985351562500,271.8367919921875000,115.4281997680664000,19.6593608856201170,29.1835594177246100,103,138,106,90,66,15214,2156569819,2168067766,2178045558,2148674934,2150422528,2155256795,2160177965,2149416265,612,7,12,59889
1342631748,5802,83.7799987792968800,19.6931991577148440,36.5859985351562500,272.8577880859375000,114.2911987304687500,19.6941204071044920,29.1284294128417970,98,136,104,90,65,15205,2158339154,2170962029,2181193325,2148845458,2151104777,2156595026,2161775680,2149587666,802,7,13,32917
1342631803,5804,81.4499969482421900,19.7306003570556640,36.5864982604980500,274.1315917968750000,113.1277008056640600,19.7297000885009770,29.0633697509765620,97,135,105,90,64,15214,2160790939,2175046162,2185752448,2149083227,2152011922,2158293824,2163719588,2149805705,849,7,12,9405
1342631858,5805,79.0699996948242200,19.7705001831054700,36.5889015197753900,275.0281066894531000,111.8346023559570300,19.7692508697509770,29.0116291046142580,94,136,105,90,63,15204,2163462829,2179081673,2189910848,2149322989,2153113508,2160312118,2166095597,2150057307,855,7,12,4342
1342631915,5803,76.5400009155273400,19.8400993347167970,36.5876998901367200,276.7148132324219000,109.5706024169921900,19.8384895324707030,28.9170608520507800,92,147,107,91,62,15200,2167561142,2185699730,2197692553,2149742619,2154694729,2163312850,2169753792,2150446016,894,7,13,60250
1342631970,5804,73.9400024414062500,19.8981990814209000,36.5887985229492200,278.4242858886719000,107.8257980346679700,19.8918704986572270,28.8288097381591800,88,142,106,90,63,15185,2170612507,2190059154,2202153828,2150131821,2155993828,2165452516,2172009252,2150733046,1000,8,13,26046
1342632025,5803,71.4199981689453100,19.9314002990722660,36.5900993347168000,279.2007141113281000,106.6155014038086000,19.9288997650146500,28.7836799621582030,89,141,106,91,62,15180,2173776073,2194086491,2206088603,2150560868,2157460013,2167824438,2174541714,2151039963,1278,7,13,56102
1342632080,5804,68.9499969482421900,19.9932994842529300,36.5901985168457000,280.1214904785156000,104.6444015502929700,19.9892196655273440,28.7233905792236330,85,140,108,91,59,15174,2177268352,2198612041,2210598445,2151032685,2158938706,2170061238,2176827556,2151338614,1506,7,13,32577
1342632135,5801,66.7399978637695300,20.0522994995117200,36.5909004211425800,279.7739868164062500,102.7344970703125000,20.0476799011230470,28.7127799987792970,83,141,107,91,62,15150,2176888036,2196275117,2206227611,2151006235,2158983478,2169446701,2175272356,2151229705,1447,7,13,1416
1342632190,5804,64.9599990844726600,20.1403999328613280,36.5891990661621100,279.7580871582031000,100.0647964477539000,20.1294097900390620,28.6799907684326170,83,141,107,92,62,15170,2185803492,2209821796,2222053540,2152174582,2162763318,2176047012,2183022948,2152124150,1217,7,12,44882
1342632258,5803,63.4199981689453100,20.2061004638671880,36.5906982421875000,281.0982055664062500,97.8658599853515600,20.1967506408691400,28.6012306213378900,81,142,107,92,65,15156,2190412123,2215473398,2227186496,2152696585,2164864630,2179025874,2185744640,2152470537,979,8,13,57691
1342632401,5800,61.7900009155273440,20.3167991638183600,36.5878982543945300,282.3429870605469000,94.1526412963867200,20.3104991912841800,28.5073699951171880,77,143,107,93,64,15148,2198097590,2223699794,2233584740,2153300781,2168608054,2183911561,2189566820,2152931638,879,7,13,12345
1342632522,5806,60.7299995422363300,20.4529991149902340,36.5898017883300800,282.4245910644531000,89.7796173095703100,20.4445209503173830,28.4499206542968750,75,141,107,93,60,15142,2203819090,2229721042,2238235053,2153816347,2171587702,2187829549,2192871908,2153321965,699,7,13,13125
1342632643,5804,58.1699981689453100,20.7794990539550780,36.5943984985351560,283.1932983398437500,81.7130432128906200,20.6919193267822270,28.3207607269287100,69,141,109,95,64,15111,2214679268,2241690779,2249023332,2155121846,2177422107,2195624640,2199635501,2154205668,686,8,13,60766
1342632731,5803,56.6199989318847660,20.9778003692626950,36.5970001220703100,283.0580139160156000,75.2921066284179700,20.8890209197998050,28.2462806701660160,69,141,108,93,62,15122,2220686171,2247996882,2254726656,2155926208,2181051126,2199868425,2202992960,2154634139,783,8,13,62058
1342633050,5802,51.7299995422363300,21.4284000396728500,36.5884017944335940,283.9122009277344000,58.4870605468750000,21.4056606292724600,28.0072307586669920,62,142,110,94,60,15114,2248365540,2275635666,2279347730,2159957312,2201216603,2223666139,2222227565,2157233380,1356,7,13,37229
1342633084,5803,50.5299987792968750,21.5186996459960940,36.5858001708984400,283.5788879394531000,55.0705604553222660,21.5108394622802730,27.9778709411621100,63,140,111,95,59,15128,2252480146,2279517568,2282927177,2160812160,2205195675,2228418614,2226176146,2157833810,1441,7,12,24766
1342633141,5802,48.6800003051757800,21.6821002960205080,36.5763015747070300,283.0907897949219000,50.0615196228027340,21.6651401519775400,27.9346504211425780,61,141,107,93,61,15128,2261263542,2289014619,2292529005,2162720484,2211721097,2235788141,2232218066,2158795172,1166,7,12,53713
1342633222,5803,46.4000015258789060,21.7362003326416000,36.5713005065918000,282.6694030761719000,47.4801902770996100,21.7446994781494140,27.9187908172607420,59,140,107,91,58,15136,2265124260,2290094473,2291749750,2164209737,2218011684,2241801563,2236153179,2159515401,427,7,13,25988
1342633267,5804,44.2900009155273440,21.8593997955322270,36.5670013427734400,282.1301879882812500,43.6336097717285160,21.8633193969726560,27.8920097351074220,59,141,107,93,61,15134,2280717650,2306743789,2308716260,2167879213,2228978541,2254267401,2246842852,2161298889,358,8,13,47906
1342633300,5804,42.5999984741210940,21.9696998596191400,36.5611000061035160,281.8880004882812500,41.0412712097168000,21.9432907104492200,27.8692607879638670,58,141,108,93,58,15122,2292143808,2319295753,2322262637,2171252598,2234924507,2260532059,2251897307,2162265508,118,7,12,56408
1342633345,5802,40.4500007629394500,22.0429000854492200,36.5581016540527340,281.3330078125000000,37.6614494323730500,22.0476207733154300,27.8489494323730470,59,142,110,94,60,15125,2301817033,2327329746,2329739163,2174622829,2245622902,2272319588,2262131355,2164192621,2994,7,13,49409
1342633390,5801,38.3800010681152340,22.1014003753662100,36.5551986694335940,281.4607849121094000,35.9512786865234400,22.1004199981689450,27.8232402801513670,58,143,109,91,56,15124,2314348342,2339882368,2343274843,2179073481,2258200310,2285696429,2273711424,2166756909,2044,8,12,32746
1342633435,5804,36.5800018310546900,22.2026004791259770,36.5420989990234400,281.0138854980469000,34.1070709228515600,22.1573791503906250,27.8173999786376950,60,142,108,93,60,15122,2333078592,2360537856,2365730221,2185608429,2269480000,2297942125,2284321069,2168930203,2281,8,13,49235
1342633492,5804,34.8699989318847660,22.4804000854492200,36.5173988342285160,279.9129943847656000,26.4573898315429700,22.3938407897949220,27.7656898498535160,59,143,108,94,58,15110,2335545499,2360660900,2365539529,2188210532,2272095488,2298495789,2283793609,2169643026,1945,8,12,57468
1342634251,5803,32.6199989318847660,23.8722991943359380,36.4137001037597660,267.5734863281250000,-18.8451805114746100,23.8006896972656250,27.6897506713867200,56,139,107,94,58,15137,2357782683,2379362212,2380868891,2194706276,2307256850,2331481024,2303811154,2171834752,3526,8,12,32620